{"data":{"norad_id":57390,"epoch":"2026-05-25T04:48:29.990304Z","epoch_age_seconds":10239435,"freshness":"OLD","line1":"1 57390U 23100E   26145.20034711  .05189989  37333-5  11615-2 0  9995","line2":"2 57390  99.4501 195.7338 0031480 223.1703 136.7115 16.28673702158554","mean_motion":16.28673702,"eccentricity":0.003148,"inclination_deg":99.4501,"raan_deg":195.7338,"arg_perigee_deg":223.1703,"mean_anomaly_deg":136.7115,"bstar":0.0011615,"rev_number":15855,"period_min":88.415500184702,"perigee_km":175.41077719453,"apogee_km":216.80221424358,"semimajor_km":6574.2434957191,"source":"CELESTRAK","updated_at":"2026-05-27T09:00:34.646714Z"}}